TimeEST,TemperatureF,Dew PointF,Humidity,Sea Level PressureIn,VisibilityMPH,Wind Direction,Wind SpeedMPH,Gust SpeedMPH,PrecipitationIn,Events,Conditions,WindDirDegrees,DateUTC
12:53 AM,62.1,60.1,93,30.06,10.0,ENE,5.8,-,N/A,,Overcast,60,2012-12-06 05:53:00
1:53 AM,60.1,57.9,93,30.04,10.0,NE,4.6,-,N/A,,Partly Cloudy,40,2012-12-06 06:53:00
2:53 AM,60.1,57.9,93,30.03,10.0,NNE,4.6,-,N/A,,Partly Cloudy,30,2012-12-06 07:53:00
3:53 AM,59.0,57.9,96,30.02,10.0,NE,4.6,-,N/A,,Partly Cloudy,40,2012-12-06 08:53:00
4:53 AM,60.1,59.0,96,30.01,10.0,NE,4.6,-,N/A,,Clear,50,2012-12-06 09:53:00
5:53 AM,57.9,57.0,97,30.02,10.0,ENE,5.8,-,N/A,,Clear,60,2012-12-06 10:53:00
6:53 AM,61.0,59.0,93,30.03,10.0,East,5.8,-,N/A,,Overcast,90,2012-12-06 11:53:00
7:53 AM,63.0,61.0,93,30.04,10.0,East,5.8,-,N/A,,Mostly Cloudy,80,2012-12-06 12:53:00
8:53 AM,66.9,62.1,84,30.04,10.0,East,5.8,-,N/A,,Clear,90,2012-12-06 13:53:00
9:53 AM,73.0,63.0,71,30.06,10.0,NE,9.2,-,N/A,,Partly Cloudy,50,2012-12-06 14:53:00
10:53 AM,75.9,64.0,67,30.04,10.0,ENE,9.2,-,N/A,,Scattered Clouds,60,2012-12-06 15:53:00
11:53 AM,78.1,62.1,58,30.03,10.0,East,6.9,-,N/A,,Mostly Cloudy,100,2012-12-06 16:53:00
12:53 PM,80.1,62.1,54,29.99,10.0,East,8.1,-,N/A,,Mostly Cloudy,80,2012-12-06 17:53:00
1:53 PM,81.0,62.1,52,29.96,10.0,East,10.4,-,N/A,,Partly Cloudy,100,2012-12-06 18:53:00
2:53 PM,80.1,61.0,52,29.95,10.0,ENE,6.9,-,N/A,,Scattered Clouds,60,2012-12-06 19:53:00
3:53 PM,80.1,60.1,50,29.94,10.0,East,8.1,-,N/A,,Clear,90,2012-12-06 20:53:00
4:53 PM,79.0,61.0,54,29.95,10.0,East,4.6,-,N/A,,Clear,80,2012-12-06 21:53:00
5:53 PM,73.0,61.0,66,29.96,10.0,ENE,3.5,-,N/A,,Mostly Cloudy,60,2012-12-06 22:53:00
6:53 PM,70.0,63.0,78,29.97,10.0,ENE,6.9,-,N/A,,Scattered Clouds,70,2012-12-06 23:53:00
8:53 PM,64.9,62.1,90,30.00,10.0,ENE,4.6,-,N/A,,Scattered Clouds,60,2012-12-07 01:53:00
9:53 PM,66.9,63.0,87,30.00,10.0,ENE,4.6,-,N/A,,Overcast,70,2012-12-07 02:53:00
10:53 PM,66.9,63.0,87,29.99,10.0,ENE,3.5,-,N/A,,Mostly Cloudy,70,2012-12-07 03:53:00
11:53 PM,64.0,62.1,93,29.98,10.0,NE,4.6,-,N/A,,Clear,40,2012-12-07 04:53:00